Back to catalog

STARLINK-4253

AliveCommunicationsVLEO
NORAD 53004·PAYLOAD·🇺🇸 United States

Launched Jul 7, 2022 from Cape Canaveral Space Force Station

Loading…

Next Passes (next 24 hours)

TLE

FreshSource: CelesTrak SupGP

Epoch: Sep 14, 2026, 13:24 UTC

1 53004C 22076U   26257.55881944  .00012021  00000+0  38663-3 0  2576
2 53004  53.1582 319.4826 0001264  79.6498   4.0614 15.31691078    14

Track STARLINK-4253 in real time with AllMySat

Download on the App Store